Asheville, NC

10:28 PM EST on December 10, 2019 (GMT -0500)
Asheville Regional

Weather History for KAVL - September, 2019

Change the Weather History Date:

Thursday, September 12, 2019

  Actual Average Record
Temperature  
Mean Temperature 77 °F 68 °F  
Max Temperature 91 °F 78 °F 91 °F (2019)
Min Temperature 63 °F 57 °F 40 °F (1917)
Degree Days  
Heating Degree Days 0 1  
Month to date heating degree days 0 4  
Since 1 July heating degree days 0 6  
Cooling Degree Days 12 4  
Month to date cooling degree days 123 58  
Year to date cooling degree days 1129 815  
Growing Degree Days 26 (Base 50)    
Moisture  
Dew Point 64 °F    
Average Humidity 66    
Maximum Humidity 93    
Minimum Humidity 38    
Precipitation  
Precipitation T in 0.13 in 2.72 in (1878)
Month to date precipitation T 1.60  
Year to date precipitation 41.71 33.21  
Snow  
Snow 0.00 in 0.00 in 0.00 in ()
Month to date snowfall 0.0 0.0  
Since 1 July snowfall 0.0 0.0  
Since 1 September snowfall 0.0 0.0  
Snow Depth 0.00 in    
Sea Level Pressure  
Sea Level Pressure 30.17 in    
Wind  
Wind Speed 3 mph (NNW)    
Max Wind Speed 14 mph    
Max Gust Speed 18 mph    
Visibility 10 miles    
Events Thunderstorm    
T = Trace of Precipitation, MM = Missing Value Source: NWS Daily Summary

Daily Weather History Graph

Daily Weather History Graph

Search for Another Location

Airport or City:

Astronomy

Sep. 12, 2019 Rise Set
Actual Time 7:10 AM EDT 7:41 PM EDT
Civil Twilight 6:44 AM EDT 8:07 PM EDT
Nautical Twilight 6:14 AM EDT 8:37 PM EDT
Astronomical Twilight 5:44 AM EDT 9:08 PM EDT
Moon 7:20 PM EDT (9/12) 5:35 AM EDT (9/12)
Length of Visible Light 13h 22m
Length of Day
12h 31m
Waxing Gibbous, 98% of the Moon is Illuminated
Sep 12
Waxing Gibbous
Sep 14
Full
Sep 21
Last Quarter
Sep 28
New
Oct 5
First Quarter

Hourly Weather History & Observations

Time (EDT) Temp. Heat Index Dew Point Humidity Pressure Visibility Wind Dir Wind Speed Gust Speed Precip Events Conditions
12:54 AM 69.1 °F - 64.0 °F 84% 30.18 in 10.0 mi Calm Calm - N/A   Clear
1:54 AM 68.0 °F - 64.0 °F 87% 30.17 in 10.0 mi Calm Calm - N/A   Clear
2:54 AM 66.0 °F - 63.0 °F 90% 30.15 in 9.0 mi Calm Calm - N/A   Clear
3:54 AM 64.9 °F - 62.1 °F 90% 30.15 in 9.0 mi Calm Calm - N/A   Clear
4:54 AM 66.0 °F - 62.1 °F 87% 30.15 in 10.0 mi Calm Calm - N/A   Clear
5:54 AM 64.0 °F - 61.0 °F 90% 30.17 in 9.0 mi Calm Calm - N/A   Clear
6:54 AM 63.0 °F - 60.1 °F 90% 30.19 in 9.0 mi Calm Calm - N/A   Clear
7:54 AM 64.9 °F - 61.0 °F 87% 30.21 in 8.0 mi Calm Calm - N/A   Clear
8:54 AM 69.1 °F - 64.0 °F 84% 30.21 in 9.0 mi Calm Calm - N/A   Clear
9:54 AM 75.9 °F - 64.9 °F 69% 30.21 in 10.0 mi NNW 4.6 mph - N/A   Clear
10:49 AM 80.6 °F 82.3 °F 64.4 °F 58% 30.29 in - Variable 5.8 mph - N/A   Clear
10:54 AM 82.0 °F 84.1 °F 66.0 °F 58% 30.20 in - NNW 8.1 mph - N/A   Clear
11:54 AM 86.0 °F 87.6 °F 64.9 °F 49% 30.19 in - North 6.9 mph - N/A   Clear
12:54 PM 88.0 °F 88.7 °F 63.0 °F 43% 30.18 in 10.0 mi North 8.1 mph - N/A   Clear
1:54 PM 87.1 °F 87.0 °F 61.0 °F 41% 30.15 in 10.0 mi Calm Calm - N/A   Partly Cloudy
3:54 PM 88.0 °F 89.6 °F 64.9 °F 46% 30.12 in 10.0 mi Variable 3.5 mph - N/A   Mostly Cloudy
4:18 PM 89.1 °F 90.3 °F 64.0 °F 43% 30.20 in 10.0 mi ESE 6.9 mph - N/A Thunderstorm Clear
4:33 PM 89.1 °F 90.3 °F 64.0 °F 43% 30.19 in 10.0 mi Variable 6.9 mph - N/A   Clear
4:52 PM 87.8 °F 88.5 °F 62.6 °F 43% 30.19 in 10.0 mi East 4.6 mph - N/A Thunderstorm Scattered Clouds
4:54 PM 88.0 °F 88.4 °F 62.1 °F 42% 30.11 in 10.0 mi Variable 4.6 mph - N/A Thunderstorm Mostly Cloudy
5:54 PM 84.9 °F 86.6 °F 64.9 °F 51% 30.11 in 10.0 mi NNW 5.8 mph - 0.00 in   Partly Cloudy
6:54 PM 82.9 °F 86.5 °F 69.1 °F 63% 30.12 in 10.0 mi NNW 4.6 mph - N/A   Clear
7:54 PM 79.0 °F - 68.0 °F 69% 30.14 in 10.0 mi NNW 8.1 mph - N/A   Scattered Clouds
9:54 PM 75.9 °F - 69.1 °F 79% 30.15 in 10.0 mi NNW 3.5 mph - N/A   Partly Cloudy
10:54 PM 73.9 °F - 66.9 °F 79% 30.14 in 10.0 mi NNW 3.5 mph - N/A   Clear
11:54 PM 73.0 °F - 66.9 °F 81% 30.14 in 10.0 mi NW 3.5 mph - N/A   Clear